Location: Alvis C Story Elementary School
(33.0968°N, 96.6364°W)
Time: 06:55:20
(UTC+00:00)

Cosmos 2228 Rocket - Pass Details

Date: 30 June 2022
Orbit: 618 x 651 km, 82.5° (Epoch: 12 August)

Event Time Altitude Azimuth Distance (km) Brightness Sun altitude
Rises 09:23:23 0° 18° (NNE) 2,910 7.7 -20.2°
Reaches altitude 10° 09:26:46 10° 45° (NE) 2,005 6.9 -19.8°
Maximum altitude 09:28:55 13° 74° (ENE) 1,797 6.2 -19.5°
Drops below altitude 10° 09:31:03 10° 103° (ESE) 2,008 6.1 -19.1°
Sets 09:34:26 0° 131° (SE) 2,919 6.6 -18.7°
